Date String (YYYY-MM-DD hh:mm:ss) UTC,Instrument flags,Ambient pressure (hPa),Sample flow (lpm),Bypass flow (lpm),Sample temperature (°C),Ambient temperature (°C),ASC tube jacket temperature (°C),LED temperature (°C),Box temperature (°C),Sample RH (%),Span deviation,Mass concentration (μg/m³),Mass concentration (μg/m³),Mass concentration (μg/m³)
DateTimeUTC,F1_M11,P_M11,Q1_M11,Q2_M11,T1_M11,T2_M11,T3_M11,T4_M11,T5_M11,U1_M11,ZSPAN_M11,X0_M11,X2_M11,X1_M11
2021-12-20 02:00:00,,0824.3,5.01,0.00,24.9,24.0,00.0,34.0,26.6,03.7,0000.0,0001.08,0000.80,0000.65
2021-12-20 02:01:00,,0824.3,4.99,0.00,24.8,24.0,00.0,34.0,26.6,03.6,0000.0,0001.11,0000.82,0000.66
2021-12-20 02:02:00,,0824.2,5.01,0.00,24.8,23.9,00.0,33.9,26.5,03.6,0000.0,0001.21,0000.87,0000.69
2021-12-20 02:03:00,,0824.3,5.00,0.00,24.8,23.9,00.0,33.9,26.5,03.6,0000.0,0001.38,0000.92,0000.72
2021-12-20 02:04:00,,0824.3,4.99,0.00,24.8,23.9,00.0,33.9,26.6,03.6,0000.0,0001.95,0000.95,0000.74
2021-12-20 02:05:00,,0824.3,4.99,0.00,24.8,23.9,00.0,33.9,26.5,03.6,0000.0,0001.98,0000.96,0000.77
2021-12-20 02:06:00,,0824.2,5.00,0.00,24.8,24.0,00.0,33.9,26.6,03.6,0000.0,0001.99,0000.97,0000.79
2021-12-20 02:07:00,,0824.3,5.02,0.00,24.8,24.0,00.0,33.9,26.6,03.6,0000.0,0002.19,0001.01,0000.81
2021-12-20 02:08:00,,0824.2,4.99,0.00,24.8,24.0,00.0,33.9,26.6,03.6,0000.0,0002.28,0001.02,0000.83
2021-12-20 02:09:00,,0824.3,5.01,0.00,24.8,24.0,00.0,33.9,26.5,03.7,0000.0,0002.25,0001.01,0000.84
2021-12-20 02:10:00,,0824.2,5.00,0.00,24.8,23.9,00.0,33.9,26.4,03.7,0000.0,0002.26,0001.01,0000.85
2021-12-20 02:11:00,,0824.2,5.00,0.00,24.7,23.9,00.0,33.9,26.4,03.6,0000.0,0002.34,0001.05,0000.87
2021-12-20 02:12:00,,0824.2,4.99,0.00,24.7,23.9,00.0,33.8,26.4,03.6,0000.0,0002.39,0001.08,0000.90
2021-12-20 02:13:00,,0824.2,5.01,0.00,24.7,23.8,00.0,33.8,26.4,03.6,0000.0,0002.45,0001.10,0000.91
2021-12-20 02:14:00,,0824.2,4.99,0.00,24.7,23.8,00.0,33.8,26.4,03.6,0000.0,0002.36,0001.06,0000.90
2021-12-20 02:15:00,,0824.2,5.00,0.00,24.7,23.8,00.0,33.8,26.3,03.7,0000.0,0001.86,0001.06,0000.91
2021-12-20 02:16:00,,0824.2,4.99,0.00,24.7,23.8,00.0,33.8,26.3,03.8,0000.0,0001.77,0001.05,0000.89
2021-12-20 02:17:00,,0824.3,5.01,0.00,24.7,23.8,00.0,33.8,26.3,03.7,0000.0,0001.82,0001.05,0000.88
2021-12-20 02:18:00,,0824.3,4.99,0.00,24.6,23.8,00.0,33.8,26.3,03.7,0000.0,0001.75,0001.04,0000.86
2021-12-20 02:19:00,,0824.3,5.00,0.00,24.6,23.8,00.0,33.8,26.3,03.7,0000.0,0001.55,0001.02,0000.85
2021-12-20 02:20:00,,0824.3,5.00,0.00,24.6,23.8,00.0,33.7,26.3,03.8,0000.0,0001.59,0001.03,0000.85
2021-12-20 02:21:00,,0824.3,5.00,0.00,24.6,23.7,00.0,33.7,26.3,03.8,0000.0,0001.56,0001.04,0000.85
2021-12-20 02:22:00,,0824.3,5.00,0.00,24.6,23.7,00.0,33.7,26.3,03.8,0000.0,0001.49,0001.02,0000.84
2021-12-20 02:23:00,,0824.3,5.03,0.00,24.6,23.7,00.0,33.7,26.3,03.8,0000.0,0001.45,0000.99,0000.82
2021-12-20 02:24:00,,0824.2,4.98,0.00,24.6,23.7,00.0,33.7,26.3,03.8,0000.0,0001.39,0000.96,0000.79
2021-12-20 02:25:00,,0824.2,5.02,0.00,24.6,23.7,00.0,33.7,26.2,03.8,0000.0,0001.35,0000.93,0000.76
2021-12-20 02:26:00,,0824.3,4.99,0.00,24.6,23.7,00.0,33.7,26.2,03.8,0000.0,0001.37,0000.92,0000.73
2021-12-20 02:27:00,,0824.2,5.00,0.00,24.6,23.7,00.0,33.7,26.2,03.8,0000.0,0001.42,0000.91,0000.72
2021-12-20 02:28:00,,0824.3,5.00,0.00,24.6,23.7,00.0,33.7,26.3,03.8,0000.0,0001.37,0000.89,0000.71
2021-12-20 02:29:00,,0824.2,4.98,0.00,24.6,23.7,00.0,33.6,26.3,03.7,0000.0,0001.30,0000.86,0000.70
2021-12-20 02:30:00,,0824.2,5.01,0.00,24.6,23.7,00.0,33.6,26.3,03.7,0000.0,0001.25,0000.85,0000.69
2021-12-20 02:31:00,,0824.3,4.99,0.00,24.6,23.7,00.0,33.6,26.3,03.7,0000.0,0001.22,0000.83,0000.68
2021-12-20 02:32:00,,0824.2,4.99,0.00,24.6,23.7,00.0,33.6,26.3,03.7,0000.0,0001.14,0000.78,0000.66
2021-12-20 02:33:00,,0824.3,5.01,0.00,24.6,23.7,00.0,33.6,26.3,03.7,0000.0,0001.19,0000.79,0000.64
2021-12-20 02:34:00,,0824.3,4.99,0.00,24.6,23.8,00.0,33.6,26.4,03.7,0000.0,0001.18,0000.78,0000.64
2021-12-20 02:35:00,,0824.3,5.00,0.00,24.6,23.8,00.0,33.6,26.4,03.7,0000.0,0001.14,0000.77,0000.64
2021-12-20 02:36:00,,0824.3,5.02,0.00,24.6,23.8,00.0,33.6,26.4,03.7,0000.0,0001.16,0000.78,0000.65
2021-12-20 02:37:00,,0824.4,4.99,0.00,24.6,23.8,00.0,33.6,26.3,03.7,0000.0,0001.15,0000.79,0000.65
2021-12-20 02:38:00,,0824.4,5.00,0.00,24.6,23.8,00.0,33.6,26.4,03.7,0000.0,0001.01,0000.76,0000.65
2021-12-20 02:39:00,,0824.4,4.99,0.00,24.6,23.8,00.0,33.6,26.3,03.7,0000.0,0000.99,0000.76,0000.66
2021-12-20 02:40:00,,0824.3,5.01,0.00,24.6,23.8,00.0,33.6,26.3,03.7,0000.0,0001.02,0000.79,0000.67
2021-12-20 02:41:00,,0824.3,4.98,0.00,24.6,23.7,00.0,33.6,26.3,03.7,0000.0,0001.07,0000.82,0000.68
2021-12-20 02:42:00,,0824.3,5.00,0.00,24.6,23.7,00.0,33.6,26.3,03.7,0000.0,0001.13,0000.85,0000.69
2021-12-20 02:43:00,,0824.3,5.01,0.00,24.6,23.7,00.0,33.6,26.3,03.7,0000.0,0001.18,0000.88,0000.71
2021-12-20 02:44:00,,0824.3,4.99,0.00,24.6,23.7,00.0,33.6,26.3,03.7,0000.0,0001.15,0000.88,0000.74
2021-12-20 02:45:00,,0824.3,5.01,0.00,24.6,23.8,00.0,33.6,26.3,03.7,0000.0,0002.47,0000.91,0000.75
2021-12-20 02:46:00,,0824.3,4.99,0.00,24.5,23.8,00.0,33.6,26.2,03.7,0000.0,0003.65,0000.93,0000.77
2021-12-20 02:47:00,,0824.3,5.01,0.00,24.5,23.7,00.0,33.6,26.2,03.7,0000.0,0003.97,0000.96,0000.79
2021-12-20 02:48:00,,0824.3,5.00,0.00,24.5,23.7,00.0,33.6,26.2,03.7,0000.0,0004.08,0000.98,0000.81
2021-12-20 02:49:00,,0824.4,4.99,0.00,24.5,23.7,00.0,33.6,26.2,03.7,0000.0,0004.13,0001.01,0000.83
2021-12-20 02:50:00,,0824.4,4.99,0.00,24.4,23.6,00.0,33.6,26.1,03.7,0000.0,0004.19,0001.05,0000.84
2021-12-20 02:51:00,,0824.5,5.00,0.00,24.4,23.6,00.0,33.5,26.1,03.7,0000.0,0004.22,0001.06,0000.86
2021-12-20 02:52:00,,0824.5,5.01,0.00,24.4,23.6,00.0,33.5,26.1,03.7,0000.0,0004.34,0001.10,0000.90
2021-12-20 02:53:00,,0824.5,4.99,0.00,24.4,23.6,00.0,33.5,26.1,03.7,0000.0,0004.32,0001.11,0000.93
2021-12-20 02:54:00,,0824.5,5.01,0.00,24.4,23.6,00.0,33.5,26.1,03.7,0000.0,0004.34,0001.11,0000.94
2021-12-20 02:55:00,,0824.4,5.00,0.00,24.4,23.5,00.0,33.5,26.1,03.7,0000.0,0004.32,0001.11,0000.94
2021-12-20 02:56:00,,0824.5,5.00,0.00,24.3,23.5,00.0,33.5,26.1,03.7,0000.0,0002.90,0001.09,0000.94
2021-12-20 02:57:00,,0824.4,4.99,0.00,24.3,23.5,00.0,33.5,26.0,03.7,0000.0,0001.79,0001.07,0000.94
2021-12-20 02:58:00,,0824.5,5.01,0.00,24.3,23.5,00.0,33.5,26.0,03.7,0000.0,0001.49,0001.07,0000.94
2021-12-20 02:59:00,,0824.5,5.01,0.00,24.3,23.5,00.0,33.4,26.0,03.7,0000.0,0001.48,0001.07,0000.93
